PIMOHWEATHER Station Historical Data
Daily Summary for May 29, 2020 Units:  Metric    English   Both
Daily Weekly Monthly Yearly
  High: Low: Average:
Temperature: 37.0 °C 27.0 °C 29.8 °C
Dew Point: 28.0 °C 24.0 °C 26 °C
Humidity: 91% 64% 81%
Wind Speed: 21km/h 0km/h 6.2km/h
Wind Gust: 24km/h - -
Wind- - South
Pressure: 1012.5 hPa 1007.5 hPa -
Precipitation: 4.83 mm    
 
 
Tabular Data for May 29, 2020
Time Temperature Dew Point Pressure Wind Wind Speed Wind Gust Humidity Rainfall Rate (Hourly) solar
00:04 28.0 °C 25.0 °C 1011.2 hPa Calm     84% 0.00 mm 0.00 W/m2
00:09 28.0 °C 25.0 °C 1010.8 hPa Calm     84% 0.00 mm 0.00 W/m2
00:14 28.0 °C 25.0 °C 1011.2 hPa Calm     84% 0.00 mm 0.00 W/m2
00:19 28.0 °C 25.0 °C 1010.8 hPa Calm     83% 0.00 mm 0.00 W/m2
00:24 28.0 °C 25.0 °C 1010.8 hPa Calm   4 km/h 84% 0.00 mm 0.00 W/m2
00:29 28.0 °C 25.0 °C 1010.8 hPa Calm     83% 0.00 mm 0.00 W/m2
00:31 28.0 °C 25.0 °C 1010.5 hPa Calm     83% 0.00 mm 0.00 W/m2
00:39 28.0 °C 25.0 °C 1010.5 hPa Calm     83% 0.00 mm 0.00 W/m2
00:44 28.0 °C 25.0 °C 1010.5 hPa Calm     83% 0.00 mm 0.00 W/m2
00:49 28.0 °C 25.0 °C 1010.5 hPa Calm     83% 0.00 mm 0.00 W/m2
00:54 28.0 °C 25.0 °C 1010.5 hPa Calm     83% 0.00 mm 0.00 W/m2
00:59 28.0 °C 25.0 °C 1010.5 hPa Calm     83% 0.00 mm 0.00 W/m2
01:04 28.0 °C 25.0 °C 1010.5 hPa Calm     83% 0.00 mm 0.00 W/m2
01:09 28.0 °C 25.0 °C 1010.5 hPa North 3 km/h 4 km/h 83% 0.00 mm 0.00 W/m2
01:14 28.0 °C 25.0 °C 1010.2 hPa North 3 km/h 4 km/h 84% 0.00 mm 0.00 W/m2
01:19 28.0 °C 25.0 °C 1010.2 hPa Calm     84% 0.00 mm 0.00 W/m2
01:24 28.0 °C 25.0 °C 1010.2 hPa NW 5 km/h 8 km/h 85% 0.00 mm 0.00 W/m2
01:29 28.0 °C 25.0 °C 1010.2 hPa NW 5 km/h 8 km/h 85% 0.00 mm 0.00 W/m2
01:34 27.0 °C 25.0 °C 1010.2 hPa Calm     85% 0.00 mm 0.00 W/m2
01:39 27.0 °C 25.0 °C 1010.2 hPa Calm     85% 0.00 mm 0.00 W/m2
01:44 27.0 °C 25.0 °C 1010.2 hPa Calm     86% 0.00 mm 0.00 W/m2
01:49 28.0 °C 25.0 °C 1010.2 hPa Calm     86% 0.00 mm 0.00 W/m2
01:54 27.0 °C 25.0 °C 1010.2 hPa Calm     85% 0.00 mm 0.00 W/m2
01:59 28.0 °C 25.0 °C 1010.2 hPa Calm     85% 0.00 mm 0.00 W/m2
02:04 28.0 °C 25.0 °C 1009.8 hPa Calm     85% 0.00 mm 0.00 W/m2
02:09 28.0 °C 25.0 °C 1009.8 hPa Calm     85% 0.00 mm 0.00 W/m2
02:14 28.0 °C 25.0 °C 1009.8 hPa Calm     85% 0.00 mm 0.00 W/m2
02:19 28.0 °C 25.0 °C 1009.8 hPa Calm     85% 0.00 mm 0.00 W/m2
02:24 28.0 °C 25.0 °C 1009.8 hPa Calm     85% 0.00 mm 0.00 W/m2
02:29 28.0 °C 25.0 °C 1009.8 hPa Calm     85% 0.00 mm 0.00 W/m2
02:34 28.0 °C 25.0 °C 1009.5 hPa Calm     85% 0.00 mm 0.00 W/m2
02:39 28.0 °C 25.0 °C 1009.5 hPa Calm     85% 0.00 mm 0.00 W/m2
02:44 28.0 °C 25.0 °C 1009.1 hPa Calm     85% 0.00 mm 0.00 W/m2
02:49 28.0 °C 25.0 °C 1009.5 hPa ESE 3 km/h 4 km/h 85% 0.00 mm 0.00 W/m2
02:54 28.0 °C 25.0 °C 1009.5 hPa East 1 km/h 4 km/h 85% 0.00 mm 0.00 W/m2
02:59 28.0 °C 25.0 °C 1009.5 hPa Calm     85% 0.00 mm 0.00 W/m2
03:04 28.0 °C 25.0 °C 1009.1 hPa Calm     85% 0.00 mm 0.00 W/m2
03:09 28.0 °C 25.0 °C 1009.1 hPa Calm   4 km/h 85% 0.00 mm 0.00 W/m2
03:14 28.0 °C 25.0 °C 1009.1 hPa Calm     85% 0.00 mm 0.00 W/m2
03:19 28.0 °C 25.0 °C 1009.1 hPa Calm   4 km/h 85% 0.00 mm 0.00 W/m2
03:24 28.0 °C 25.0 °C 1009.1 hPa ESE 4 km/h 4 km/h 85% 0.00 mm 0.00 W/m2
03:34 28.0 °C 25.0 °C 1008.8 hPa East 1 km/h 4 km/h 86% 0.00 mm 0.00 W/m2
03:39 28.0 °C 25.0 °C 1009.1 hPa SSE 4 km/h 4 km/h 86% 0.00 mm 0.00 W/m2
03:44 28.0 °C 25.0 °C 1008.8 hPa NNE 1 km/h 4 km/h 86% 0.00 mm 0.00 W/m2
03:49 28.0 °C 25.0 °C 1008.8 hPa Calm     86% 0.00 mm 0.00 W/m2
03:54 28.0 °C 25.0 °C 1008.8 hPa NE 1 km/h 4 km/h 86% 0.00 mm 0.00 W/m2
03:59 28.0 °C 25.0 °C 1008.8 hPa Calm     86% 0.00 mm 0.00 W/m2
04:04 28.0 °C 25.0 °C 1008.5 hPa Calm   4 km/h 86% 0.00 mm 0.00 W/m2
04:09 28.0 °C 25.0 °C 1008.8 hPa Calm     86% 0.00 mm 0.00 W/m2
04:14 28.0 °C 25.0 °C 1008.8 hPa Calm   4 km/h 86% 0.00 mm 0.00 W/m2
04:19 28.0 °C 25.0 °C 1008.8 hPa NNE 1 km/h 4 km/h 86% 0.00 mm 0.00 W/m2
04:24 28.0 °C 25.0 °C 1008.8 hPa Calm   4 km/h 86% 0.00 mm 0.00 W/m2
04:29 27.0 °C 25.0 °C 1008.8 hPa Calm     87% 0.00 mm 0.00 W/m2
04:34 27.0 °C 25.0 °C 1008.8 hPa Calm     87% 0.00 mm 0.00 W/m2
04:39 27.0 °C 25.0 °C 1009.1 hPa Calm     87% 0.00 mm 0.00 W/m2
04:44 27.0 °C 25.0 °C 1009.1 hPa Calm   4 km/h 87% 0.00 mm 0.00 W/m2
04:49 27.0 °C 25.0 °C 1009.1 hPa Calm     87% 0.00 mm 0.00 W/m2
04:54 27.0 °C 25.0 °C 1009.1 hPa Calm     87% 0.00 mm 0.00 W/m2
04:59 27.0 °C 25.0 °C 1009.1 hPa North 4 km/h 4 km/h 87% 0.00 mm 0.00 W/m2
05:04 27.0 °C 25.0 °C 1009.1 hPa NW 1 km/h 4 km/h 88% 0.00 mm 0.00 W/m2
05:09 27.0 °C 25.0 °C 1009.1 hPa NW 3 km/h 4 km/h 88% 0.00 mm 0.00 W/m2
05:14 27.0 °C 25.0 °C 1009.1 hPa Calm     88% 0.00 mm 0.00 W/m2
05:19 27.0 °C 25.0 °C 1009.5 hPa Calm     88% 0.00 mm 0.00 W/m2
05:24 27.0 °C 25.0 °C 1009.1 hPa Calm     88% 0.00 mm 1.17 W/m2
05:29 27.0 °C 25.0 °C 1009.1 hPa North 5 km/h 8 km/h 89% 0.00 mm 4.20 W/m2
05:34 27.0 °C 25.0 °C 1009.5 hPa NW 3 km/h 4 km/h 89% 0.00 mm 7.62 W/m2
05:39 27.0 °C 25.0 °C 1009.5 hPa NW 6 km/h 8 km/h 89% 0.00 mm 13.83 W/m2
05:44 27.0 °C 25.0 °C 1009.5 hPa NNW 3 km/h 4 km/h 89% 0.00 mm 20.02 W/m2
05:49 27.0 °C 25.0 °C 1009.5 hPa North 3 km/h 4 km/h 89% 0.00 mm 25.07 W/m2
05:54 27.0 °C 25.0 °C 1009.5 hPa Calm     89% 0.00 mm 29.89 W/m2
05:59 27.0 °C 25.0 °C 1009.8 hPa North 5 km/h 8 km/h 89% 0.00 mm 34.45 W/m2
06:04 27.0 °C 25.0 °C 1009.8 hPa North 5 km/h 8 km/h 89% 0.00 mm 39.09 W/m2
06:09 27.0 °C 25.0 °C 1009.8 hPa NNE 4 km/h 4 km/h 88% 0.00 mm 43.47 W/m2
06:14 27.0 °C 25.0 °C 1009.8 hPa Calm     88% 0.00 mm 47.73 W/m2
06:19 27.0 °C 25.0 °C 1009.5 hPa Calm     88% 0.00 mm 146.28 W/m2
06:24 28.0 °C 25.0 °C 1009.8 hPa Calm     87% 0.00 mm 152.67 W/m2
06:29 28.0 °C 25.0 °C 1010.2 hPa North 7 km/h 8 km/h 87% 0.00 mm 153.99 W/m2
06:34 28.0 °C 25.0 °C 1010.2 hPa North 10 km/h 12 km/h 87% 0.00 mm 154.16 W/m2
06:39 28.0 °C 25.0 °C 1010.2 hPa NNW 7 km/h 8 km/h 87% 0.00 mm 183.23 W/m2
06:44 28.0 °C 25.0 °C 1010.2 hPa NNW 5 km/h 8 km/h 86% 0.00 mm 193.85 W/m2
06:49 28.0 °C 25.0 °C 1010.2 hPa North 8 km/h 8 km/h 85% 0.00 mm 204.93 W/m2
06:54 28.0 °C 25.0 °C 1010.2 hPa North 9 km/h 12 km/h 86% 0.00 mm 210.90 W/m2
06:59 28.0 °C 25.0 °C 1010.2 hPa North 10 km/h 12 km/h 86% 0.00 mm 221.33 W/m2
07:04 28.0 °C 25.0 °C 1010.2 hPa North 8 km/h 12 km/h 85% 0.00 mm 232.63 W/m2
07:09 28.0 °C 25.0 °C 1010.5 hPa North 8 km/h 8 km/h 84% 0.00 mm 244.52 W/m2
07:14 28.0 °C 25.0 °C 1010.5 hPa North 10 km/h 12 km/h 84% 0.00 mm 244.77 W/m2
07:19 28.0 °C 25.0 °C 1010.5 hPa NW 15 km/h 16 km/h 84% 0.00 mm 252.33 W/m2
07:24 28.0 °C 25.0 °C 1010.5 hPa NNW 10 km/h 12 km/h 84% 0.00 mm 262.19 W/m2
07:29 29.0 °C 25.0 °C 1010.5 hPa NNW 9 km/h 12 km/h 83% 0.00 mm 270.51 W/m2
07:34 29.0 °C 25.0 °C 1010.5 hPa NW 10 km/h 12 km/h 83% 0.00 mm 277.99 W/m2
07:39 29.0 °C 26.0 °C 1010.5 hPa NW 9 km/h 12 km/h 83% 0.00 mm 284.16 W/m2
07:44 29.0 °C 25.0 °C 1010.5 hPa NNW 12 km/h 12 km/h 82% 0.00 mm 285.38 W/m2
07:49 29.0 °C 25.0 °C 1010.5 hPa NNW 13 km/h 16 km/h 83% 0.00 mm 290.81 W/m2
07:54 29.0 °C 26.0 °C 1010.5 hPa NNW 10 km/h 12 km/h 81% 0.00 mm 297.25 W/m2
07:59 30.0 °C 26.0 °C 1010.5 hPa NNW 12 km/h 12 km/h 80% 0.00 mm 312.27 W/m2
08:04 30.0 °C 26.0 °C 1010.8 hPa NW 15 km/h 16 km/h 80% 0.00 mm 321.52 W/m2
08:09 30.0 °C 26.0 °C 1010.8 hPa NNW 10 km/h 12 km/h 81% 0.00 mm 325.09 W/m2
08:14 31.0 °C 26.0 °C 1010.8 hPa WNW 8 km/h 12 km/h 79% 0.00 mm 332.43 W/m2
08:19 31.0 °C 26.0 °C 1010.8 hPa NW 10 km/h 12 km/h 77% 0.00 mm 344.64 W/m2
08:24 30.0 °C 26.0 °C 1010.8 hPa NW 9 km/h 12 km/h 78% 0.00 mm 352.64 W/m2
08:29 31.0 °C 26.0 °C 1010.8 hPa NNW 9 km/h 12 km/h 77% 0.00 mm 401.45 W/m2
08:34 31.0 °C 26.0 °C 1010.8 hPa NW 10 km/h 12 km/h 77% 0.00 mm 431.52 W/m2
08:39 31.0 °C 26.0 °C 1010.8 hPa NW 13 km/h 16 km/h 77% 0.00 mm 256.90 W/m2
08:44 30.0 °C 26.0 °C 1011.2 hPa NNW 11 km/h 16 km/h 77% 0.00 mm 364.83 W/m2
08:49 30.0 °C 26.0 °C 1011.2 hPa NW 8 km/h 12 km/h 78% 0.00 mm 376.86 W/m2
08:54 31.0 °C 26.0 °C 1010.8 hPa WNW 6 km/h 8 km/h 78% 0.00 mm 443.90 W/m2
08:59 31.0 °C 27.0 °C 1010.8 hPa NW 10 km/h 12 km/h 78% 0.00 mm 419.58 W/m2
09:04 32.0 °C 27.0 °C 1010.8 hPa SSW 9 km/h 12 km/h 76% 0.00 mm 452.76 W/m2
09:09 31.0 °C 27.0 °C 1010.8 hPa NW 15 km/h 16 km/h 78% 0.00 mm 407.94 W/m2
09:14 31.0 °C 26.0 °C 1010.8 hPa WNW 14 km/h 16 km/h 78% 0.00 mm 171.46 W/m2
09:19 31.0 °C 26.0 °C 1010.8 hPa West 9 km/h 12 km/h 78% 0.00 mm 156.68 W/m2
09:24 31.0 °C 27.0 °C 1010.8 hPa South 9 km/h 12 km/h 78% 0.00 mm 463.48 W/m2
09:29 32.0 °C 27.0 °C 1010.5 hPa West 10 km/h 12 km/h 77% 0.00 mm 461.67 W/m2
09:34 32.0 °C 27.0 °C 1010.5 hPa West 11 km/h 16 km/h 77% 0.00 mm 469.33 W/m2
09:39 32.0 °C 27.0 °C 1010.5 hPa NW 10 km/h 12 km/h 77% 0.00 mm 474.32 W/m2
09:44 33.0 °C 27.0 °C 1010.5 hPa NW 8 km/h 12 km/h 77% 0.00 mm 494.70 W/m2
09:49 33.0 °C 27.0 °C 1010.5 hPa NNW 11 km/h 16 km/h 76% 0.00 mm 461.67 W/m2
09:54 32.0 °C 27.0 °C 1010.5 hPa NW 13 km/h 16 km/h 76% 0.00 mm 455.53 W/m2
09:59 32.0 °C 27.0 °C 1010.5 hPa NW 10 km/h 12 km/h 77% 0.00 mm 449.80 W/m2
10:04 33.0 °C 27.0 °C 1010.5 hPa SSE 10 km/h 12 km/h 74% 0.00 mm 463.36 W/m2
10:09 33.0 °C 28.0 °C 1010.2 hPa SSE 7 km/h 8 km/h 72% 0.00 mm 493.77 W/m2
10:14 33.0 °C 28.0 °C 1010.2 hPa South 9 km/h 12 km/h 73% 0.00 mm 478.67 W/m2
10:19 33.0 °C 28.0 °C 1010.2 hPa SSW 10 km/h 16 km/h 73% 0.00 mm 340.80 W/m2
10:24 33.0 °C 28.0 °C 1010.5 hPa South 12 km/h 16 km/h 76% 0.00 mm 167.87 W/m2
10:29 32.0 °C 27.0 °C 1010.5 hPa SSW 8 km/h 12 km/h 76% 0.00 mm 177.87 W/m2
10:34 32.0 °C 27.0 °C 1010.5 hPa WSW 3 km/h 4 km/h 76% 0.00 mm 508.82 W/m2
10:39 33.0 °C 28.0 °C 1010.2 hPa SSW 5 km/h 8 km/h 74% 0.00 mm 537.08 W/m2
10:44 33.0 °C 28.0 °C 1010.2 hPa SSW 6 km/h 8 km/h 72% 0.00 mm 318.53 W/m2
10:49 33.0 °C 28.0 °C 1010.2 hPa WSW 6 km/h 12 km/h 72% 0.00 mm 575.32 W/m2
10:54 34.0 °C 28.0 °C 1010.2 hPa South 9 km/h 12 km/h 71% 0.00 mm 567.10 W/m2
10:59 34.0 °C 28.0 °C 1010.2 hPa SSW 8 km/h 12 km/h 71% 0.00 mm 544.20 W/m2
11:04 34.0 °C 28.0 °C 1009.8 hPa WSW 10 km/h 12 km/h 71% 0.00 mm 568.66 W/m2
11:09 34.0 °C 28.0 °C 1009.8 hPa WNW 10 km/h 12 km/h 72% 0.00 mm 493.82 W/m2
11:14 33.0 °C 28.0 °C 1009.8 hPa NW 10 km/h 12 km/h 74% 0.00 mm 534.87 W/m2
11:19 33.0 °C 28.0 °C 1009.8 hPa West 9 km/h 12 km/h 72% 0.00 mm 558.02 W/m2
11:24 34.0 °C 28.0 °C 1010.2 hPa South 9 km/h 12 km/h 72% 0.00 mm 579.70 W/m2
11:29 34.0 °C 28.0 °C 1009.8 hPa NNW 9 km/h 12 km/h 72% 0.00 mm 541.04 W/m2
11:34 33.0 °C 28.0 °C 1009.8 hPa WNW 12 km/h 16 km/h 72% 0.00 mm 553.93 W/m2
11:39 33.0 °C 27.0 °C 1009.8 hPa West 15 km/h 20 km/h 72% 0.00 mm 518.90 W/m2
11:44 33.0 °C 27.0 °C 1009.8 hPa WSW 8 km/h 12 km/h 71% 0.00 mm 438.13 W/m2
11:49 33.0 °C 28.0 °C 1009.5 hPa NW 7 km/h 12 km/h 72% 0.00 mm 532.92 W/m2
11:54 34.0 °C 28.0 °C 1009.8 hPa South 9 km/h 16 km/h 70% 0.00 mm 557.80 W/m2
11:59 34.0 °C 28.0 °C 1009.5 hPa WSW 14 km/h 16 km/h 69% 0.00 mm 571.48 W/m2
12:04 34.0 °C 28.0 °C 1009.5 hPa WNW 15 km/h 20 km/h 69% 0.00 mm 560.39 W/m2
12:09 34.0 °C 28.0 °C 1009.1 hPa South 10 km/h 12 km/h 70% 0.00 mm 549.65 W/m2
12:14 35.0 °C 28.0 °C 1009.5 hPa WSW 14 km/h 16 km/h 69% 0.00 mm 561.45 W/m2
12:19 35.0 °C 28.0 °C 1009.5 hPa West 13 km/h 16 km/h 68% 0.00 mm 575.15 W/m2
12:24 35.0 °C 28.0 °C 1009.1 hPa WNW 14 km/h 16 km/h 68% 0.00 mm 586.03 W/m2
12:29 35.0 °C 28.0 °C 1009.1 hPa WSW 15 km/h 20 km/h 69% 0.00 mm 559.93 W/m2
12:34 34.0 °C 28.0 °C 1009.1 hPa WNW 12 km/h 16 km/h 68% 0.00 mm 556.92 W/m2
12:39 35.0 °C 28.0 °C 1008.8 hPa WSW 10 km/h 12 km/h 67% 0.00 mm 570.01 W/m2
12:44 35.0 °C 28.0 °C 1008.8 hPa NW 14 km/h 20 km/h 68% 0.00 mm 556.06 W/m2
12:49 35.0 °C 28.0 °C 1008.8 hPa SSW 10 km/h 16 km/h 68% 0.00 mm 552.42 W/m2
12:54 35.0 °C 28.0 °C 1008.8 hPa WNW 14 km/h 20 km/h 66% 0.00 mm 578.35 W/m2
12:59 35.0 °C 28.0 °C 1008.8 hPa SSE 9 km/h 12 km/h 66% 0.00 mm 563.89 W/m2
13:04 35.0 °C 28.0 °C 1008.8 hPa West 17 km/h 20 km/h 67% 0.00 mm 563.60 W/m2
13:09 35.0 °C 28.0 °C 1008.5 hPa WNW 16 km/h 20 km/h 67% 0.00 mm 556.50 W/m2
13:14 35.0 °C 28.0 °C 1008.5 hPa WNW 12 km/h 16 km/h 65% 0.00 mm 570.91 W/m2
13:19 35.0 °C 28.0 °C 1008.5 hPa WNW 12 km/h 16 km/h 67% 0.00 mm 555.82 W/m2
13:24 35.0 °C 28.0 °C 1008.1 hPa WNW 10 km/h 16 km/h 66% 0.00 mm 552.34 W/m2
13:29 35.0 °C 28.0 °C 1008.1 hPa NW 10 km/h 12 km/h 65% 0.00 mm 552.69 W/m2
13:34 35.0 °C 28.0 °C 1008.5 hPa WSW 15 km/h 16 km/h 66% 0.00 mm 553.69 W/m2
13:39 36.0 °C 28.0 °C 1008.1 hPa NNW 9 km/h 12 km/h 65% 0.00 mm 574.00 W/m2
13:44 36.0 °C 28.0 °C 1008.1 hPa South 12 km/h 16 km/h 65% 0.00 mm 566.36 W/m2
13:49 36.0 °C 28.0 °C 1008.1 hPa WNW 13 km/h 16 km/h 64% 0.00 mm 542.19 W/m2
13:54 36.0 °C 28.0 °C 1008.1 hPa West 9 km/h 12 km/h 64% 0.00 mm 563.18 W/m2
13:59 36.0 °C 28.0 °C 1007.8 hPa NW 14 km/h 20 km/h 65% 0.00 mm 554.33 W/m2
14:04 36.0 °C 28.0 °C 1007.8 hPa WNW 9 km/h 12 km/h 65% 0.00 mm 556.48 W/m2
14:09 36.0 °C 28.0 °C 1007.8 hPa WNW 17 km/h 24 km/h 65% 0.00 mm 580.43 W/m2
14:14 36.0 °C 28.0 °C 1007.8 hPa West 10 km/h 16 km/h 66% 0.00 mm 578.52 W/m2
14:19 36.0 °C 28.0 °C 1007.8 hPa WNW 10 km/h 12 km/h 64% 0.00 mm 599.39 W/m2
14:24 36.0 °C 28.0 °C 1007.8 hPa NW 14 km/h 20 km/h 65% 0.00 mm 605.24 W/m2
14:29 37.0 °C 28.0 °C 1007.5 hPa SE 8 km/h 12 km/h 64% 0.00 mm 607.69 W/m2
14:34 37.0 °C 28.0 °C 1007.5 hPa West 20 km/h 24 km/h 65% 0.00 mm 623.86 W/m2
14:39 36.0 °C 28.0 °C 1007.5 hPa WNW 14 km/h 20 km/h 65% 0.00 mm 599.32 W/m2
14:44 36.0 °C 28.0 °C 1007.5 hPa WNW 13 km/h 16 km/h 65% 0.00 mm 545.32 W/m2
14:49 36.0 °C 28.0 °C 1007.8 hPa SW 10 km/h 12 km/h 67% 0.00 mm 448.01 W/m2
14:54 35.0 °C 28.0 °C 1008.1 hPa North 15 km/h 20 km/h 77% 1.78 mm 103.34 W/m2
14:59 32.0 °C 28.0 °C 1008.1 hPa NNE 1 km/h 4 km/h 83% 5.33 mm 44.84 W/m2
15:04 31.0 °C 28.0 °C 1008.5 hPa NNE 17 km/h 24 km/h 86% 5.33 mm 39.15 W/m2
15:09 29.0 °C 27.0 °C 1008.5 hPa NNE 8 km/h 12 km/h 88% 5.33 mm 37.63 W/m2
15:14 29.0 °C 27.0 °C 1008.8 hPa NNE 18 km/h 24 km/h 88% 12.70 mm 39.24 W/m2
15:19 28.0 °C 26.0 °C 1008.8 hPa NNE 15 km/h 20 km/h 88% 14.48 mm 50.51 W/m2
15:24 28.0 °C 26.0 °C 1008.8 hPa NNE 21 km/h 24 km/h 90% 10.67 mm 56.32 W/m2
15:29 28.0 °C 26.0 °C 1008.8 hPa NE 12 km/h 16 km/h 91% 3.56 mm 61.43 W/m2
15:34 27.0 °C 26.0 °C 1008.8 hPa NNE 15 km/h 24 km/h 91% 1.78 mm 61.46 W/m2
15:39 27.0 °C 26.0 °C 1008.8 hPa NNE 8 km/h 8 km/h 90% 1.78 mm 65.05 W/m2
15:44 28.0 °C 26.0 °C 1008.8 hPa SE 1 km/h 4 km/h 90% 3.56 mm 64.00 W/m2
15:49 28.0 °C 26.0 °C 1009.1 hPa Calm     91% 5.33 mm 55.56 W/m2
15:54 28.0 °C 26.0 °C 1009.1 hPa Calm     91% 5.33 mm 63.21 W/m2
15:59 28.0 °C 26.0 °C 1008.8 hPa Calm     91% 1.78 mm 71.48 W/m2
16:04 28.0 °C 26.0 °C 1008.8 hPa SSW 4 km/h 4 km/h 90% 0.00 mm 71.33 W/m2
16:09 28.0 °C 26.0 °C 1008.8 hPa Calm     89% 0.00 mm 61.96 W/m2
16:14 28.0 °C 26.0 °C 1008.8 hPa North 9 km/h 12 km/h 90% 0.00 mm 74.25 W/m2
16:19 29.0 °C 27.0 °C 1009.1 hPa North 7 km/h 12 km/h 89% 0.00 mm 75.33 W/m2
16:24 29.0 °C 27.0 °C 1009.1 hPa NNE 9 km/h 12 km/h 89% 0.00 mm 71.12 W/m2
16:29 29.0 °C 26.0 °C 1009.1 hPa NNE 5 km/h 8 km/h 89% 0.00 mm 71.45 W/m2
16:34 29.0 °C 27.0 °C 1009.1 hPa NW 5 km/h 8 km/h 89% 0.00 mm 61.84 W/m2
16:39 29.0 °C 26.0 °C 1008.8 hPa North 10 km/h 12 km/h 88% 0.00 mm 64.38 W/m2
16:44 29.0 °C 26.0 °C 1008.8 hPa North 6 km/h 8 km/h 86% 0.00 mm 64.50 W/m2
16:49 29.0 °C 26.0 °C 1008.8 hPa NNE 6 km/h 8 km/h 85% 0.00 mm 50.04 W/m2
16:54 29.0 °C 26.0 °C 1008.8 hPa North 10 km/h 12 km/h 84% 0.00 mm 41.98 W/m2
16:59 29.0 °C 26.0 °C 1008.8 hPa NNE 9 km/h 12 km/h 85% 0.00 mm 41.37 W/m2
17:04 29.0 °C 26.0 °C 1008.8 hPa NNE 14 km/h 16 km/h 86% 0.00 mm 34.80 W/m2
17:09 28.0 °C 26.0 °C 1008.8 hPa NNE 13 km/h 16 km/h 87% 0.00 mm 35.21 W/m2
17:14 28.0 °C 26.0 °C 1009.1 hPa NE 10 km/h 12 km/h 88% 0.00 mm 32.02 W/m2
17:19 28.0 °C 26.0 °C 1009.1 hPa ENE 8 km/h 12 km/h 88% 0.00 mm 24.81 W/m2
17:24 28.0 °C 26.0 °C 1009.5 hPa NE 13 km/h 20 km/h 88% 0.00 mm 21.86 W/m2
17:29 28.0 °C 26.0 °C 1009.5 hPa ENE 6 km/h 8 km/h 88% 0.00 mm 18.53 W/m2
17:34 28.0 °C 26.0 °C 1009.5 hPa ENE 6 km/h 8 km/h 87% 0.00 mm 15.96 W/m2
17:39 28.0 °C 26.0 °C 1009.5 hPa NE 7 km/h 16 km/h 87% 0.00 mm 11.30 W/m2
17:44 28.0 °C 26.0 °C 1009.8 hPa NE 3 km/h 8 km/h 87% 0.00 mm 8.41 W/m2
17:49 28.0 °C 26.0 °C 1009.8 hPa ESE 9 km/h 12 km/h 87% 0.00 mm 6.18 W/m2
17:54 28.0 °C 26.0 °C 1009.8 hPa ESE 9 km/h 16 km/h 87% 0.00 mm 4.82 W/m2
17:59 28.0 °C 26.0 °C 1009.8 hPa ESE 13 km/h 16 km/h 86% 0.00 mm 2.59 W/m2
18:04 28.0 °C 26.0 °C 1009.5 hPa NNW 5 km/h 8 km/h 87% 0.00 mm 1.35 W/m2
18:09 28.0 °C 26.0 °C 1009.5 hPa SSE 5 km/h 8 km/h 86% 0.00 mm 0.25 W/m2
18:14 28.0 °C 26.0 °C 1009.5 hPa SE 10 km/h 12 km/h 86% 0.00 mm 0.00 W/m2
18:19 29.0 °C 26.0 °C 1009.1 hPa SE 4 km/h 8 km/h 86% 0.00 mm 0.00 W/m2
18:24 29.0 °C 26.0 °C 1009.1 hPa East 11 km/h 16 km/h 86% 0.00 mm 0.00 W/m2
18:29 28.0 °C 26.0 °C 1009.5 hPa East 11 km/h 16 km/h 86% 0.00 mm 0.00 W/m2
18:34 28.0 °C 26.0 °C 1009.5 hPa East 8 km/h 12 km/h 85% 0.00 mm 0.00 W/m2
18:39 28.0 °C 25.0 °C 1009.8 hPa ESE 6 km/h 8 km/h 83% 0.00 mm 0.00 W/m2
18:44 28.0 °C 25.0 °C 1009.8 hPa East 4 km/h 4 km/h 82% 0.00 mm 0.00 W/m2
18:49 28.0 °C 25.0 °C 1009.8 hPa ESE 6 km/h 8 km/h 81% 0.00 mm 0.00 W/m2
18:54 28.0 °C 25.0 °C 1009.8 hPa NE 4 km/h 8 km/h 81% 0.00 mm 0.00 W/m2
18:59 28.0 °C 25.0 °C 1009.8 hPa NNW 1 km/h 4 km/h 81% 0.00 mm 0.00 W/m2
19:04 29.0 °C 25.0 °C 1009.8 hPa NE 6 km/h 8 km/h 81% 0.00 mm 0.00 W/m2
19:09 29.0 °C 25.0 °C 1010.2 hPa ESE 1 km/h 4 km/h 80% 0.00 mm 0.00 W/m2
19:14 29.0 °C 25.0 °C 1010.2 hPa East 3 km/h 4 km/h 79% 0.00 mm 0.00 W/m2
19:19 29.0 °C 25.0 °C 1010.2 hPa Calm   4 km/h 79% 0.00 mm 0.00 W/m2
19:24 29.0 °C 25.0 °C 1010.5 hPa SE 1 km/h 4 km/h 79% 0.00 mm 0.00 W/m2
19:29 29.0 °C 25.0 °C 1010.2 hPa ENE 1 km/h 4 km/h 79% 0.00 mm 0.00 W/m2
19:34 29.0 °C 25.0 °C 1010.5 hPa SE 5 km/h 8 km/h 80% 0.00 mm 0.00 W/m2
19:44 29.0 °C 25.0 °C 1010.5 hPa ESE 3 km/h 8 km/h 81% 0.00 mm 0.00 W/m2
19:49 28.0 °C 25.0 °C 1010.5 hPa ESE 4 km/h 4 km/h 81% 0.00 mm 0.00 W/m2
19:54 28.0 °C 25.0 °C 1010.5 hPa Calm     81% 0.00 mm 0.00 W/m2
19:59 28.0 °C 25.0 °C 1010.5 hPa ESE 4 km/h 4 km/h 81% 0.00 mm 0.00 W/m2
20:04 28.0 °C 25.0 °C 1010.5 hPa SE 3 km/h 4 km/h 80% 0.00 mm 0.00 W/m2
20:09 29.0 °C 25.0 °C 1010.5 hPa Calm     79% 0.00 mm 0.00 W/m2
20:14 29.0 °C 25.0 °C 1010.8 hPa SE 4 km/h 4 km/h 79% 0.00 mm 0.00 W/m2
20:19 29.0 °C 25.0 °C 1010.8 hPa ESE 3 km/h 4 km/h 79% 0.00 mm 0.00 W/m2
20:24 29.0 °C 25.0 °C 1010.8 hPa Calm     79% 0.00 mm 0.00 W/m2
20:29 29.0 °C 25.0 °C 1010.8 hPa Calm     78% 0.00 mm 0.00 W/m2
20:34 29.0 °C 25.0 °C 1010.8 hPa Calm     78% 0.00 mm 0.00 W/m2
20:39 29.0 °C 25.0 °C 1011.2 hPa Calm     78% 0.00 mm 0.00 W/m2
20:44 29.0 °C 24.0 °C 1011.2 hPa ENE 1 km/h 4 km/h 77% 0.00 mm 0.00 W/m2
20:49 29.0 °C 25.0 °C 1011.2 hPa ESE 1 km/h 4 km/h 78% 0.00 mm 0.00 W/m2
20:54 29.0 °C 25.0 °C 1011.2 hPa ESE 4 km/h 8 km/h 78% 0.00 mm 0.00 W/m2
20:59 29.0 °C 25.0 °C 1011.5 hPa ESE 5 km/h 8 km/h 79% 0.00 mm 0.00 W/m2
21:04 29.0 °C 25.0 °C 1010.8 hPa ESE 3 km/h 4 km/h 79% 0.00 mm 0.00 W/m2
21:09 29.0 °C 25.0 °C 1010.8 hPa East 1 km/h 4 km/h 80% 0.00 mm 0.00 W/m2
21:14 29.0 °C 25.0 °C 1011.2 hPa Calm     80% 0.00 mm 0.00 W/m2
21:19 29.0 °C 25.0 °C 1011.2 hPa Calm     80% 0.00 mm 0.00 W/m2
21:24 29.0 °C 25.0 °C 1011.5 hPa Calm     80% 0.00 mm 0.00 W/m2
21:29 29.0 °C 25.0 °C 1011.5 hPa North 4 km/h 4 km/h 81% 0.00 mm 0.00 W/m2
21:34 29.0 °C 25.0 °C 1011.5 hPa North 5 km/h 8 km/h 82% 0.00 mm 0.00 W/m2
21:39 29.0 °C 25.0 °C 1011.9 hPa NNE 9 km/h 12 km/h 83% 0.00 mm 0.00 W/m2
21:44 28.0 °C 25.0 °C 1011.9 hPa North 5 km/h 8 km/h 84% 0.00 mm 0.00 W/m2
21:49 28.0 °C 25.0 °C 1011.9 hPa NNE 5 km/h 8 km/h 84% 0.00 mm 0.00 W/m2
21:54 28.0 °C 25.0 °C 1011.9 hPa NNE 3 km/h 4 km/h 84% 0.00 mm 0.00 W/m2
21:59 28.0 °C 26.0 °C 1011.9 hPa Calm     84% 0.00 mm 0.00 W/m2
22:04 29.0 °C 26.0 °C 1011.9 hPa Calm     84% 0.00 mm 0.00 W/m2
22:09 29.0 °C 25.0 °C 1011.5 hPa SE 5 km/h 8 km/h 83% 0.00 mm 0.00 W/m2
22:14 29.0 °C 25.0 °C 1011.5 hPa ESE 5 km/h 8 km/h 83% 0.00 mm 0.00 W/m2
22:19 29.0 °C 26.0 °C 1011.9 hPa Calm     83% 0.00 mm 0.00 W/m2
22:24 29.0 °C 26.0 °C 1011.9 hPa SE 5 km/h 8 km/h 83% 0.00 mm 0.00 W/m2
22:29 29.0 °C 26.0 °C 1011.9 hPa Calm     83% 0.00 mm 0.00 W/m2
22:34 29.0 °C 26.0 °C 1011.9 hPa Calm     83% 0.00 mm 0.00 W/m2
22:39 29.0 °C 26.0 °C 1012.2 hPa North 4 km/h 4 km/h 82% 0.00 mm 0.00 W/m2
22:44 29.0 °C 26.0 °C 1012.2 hPa North 10 km/h 12 km/h 82% 0.00 mm 0.00 W/m2
22:49 29.0 °C 26.0 °C 1012.2 hPa NNW 11 km/h 12 km/h 85% 0.00 mm 0.00 W/m2
22:54 29.0 °C 26.0 °C 1012.5 hPa North 12 km/h 16 km/h 87% 0.00 mm 0.00 W/m2
22:59 28.0 °C 26.0 °C 1012.5 hPa North 9 km/h 12 km/h 88% 0.00 mm 0.00 W/m2
23:04 28.0 °C 26.0 °C 1012.2 hPa North 10 km/h 12 km/h 88% 0.00 mm 0.00 W/m2
23:09 28.0 °C 26.0 °C 1012.5 hPa NNE 12 km/h 12 km/h 88% 0.00 mm 0.00 W/m2
23:14 28.0 °C 26.0 °C 1012.2 hPa NNE 10 km/h 12 km/h 88% 0.00 mm 0.00 W/m2
23:19 28.0 °C 26.0 °C 1012.2 hPa SE 10 km/h 12 km/h 88% 0.00 mm 0.00 W/m2
23:24 28.0 °C 26.0 °C 1012.2 hPa SSE 8 km/h 8 km/h 88% 0.00 mm 0.00 W/m2
23:29 28.0 °C 26.0 °C 1012.2 hPa NW 3 km/h 4 km/h 88% 0.00 mm 0.00 W/m2
23:39 28.0 °C 26.0 °C 1012.5 hPa NW 5 km/h 8 km/h 87% 0.00 mm 0.00 W/m2
23:44 28.0 °C 26.0 °C 1012.5 hPa NNE 4 km/h 4 km/h 87% 0.00 mm 0.00 W/m2
23:49 28.0 °C 26.0 °C 1012.2 hPa Calm     87% 0.00 mm 0.00 W/m2
23:54 28.0 °C 26.0 °C 1012.2 hPa NW 3 km/h 4 km/h 87% 0.00 mm 0.00 W/m2
23:59 28.0 °C 26.0 °C 1011.9 hPa NNE 6 km/h 8 km/h 87% 0.00 mm 0.00 W/m2
PIMOHWEATHER Philippines
Compliments of Weather Underground - 2 mb